Location: Unspecified
(49.2170°N, 0.0000°E)
Time: 14:46:41
(UTC+00:00)

Tiros 1 despin weight - Pass Details

Date: 29 January 2021
Orbit: 593 x 642 km, 48.2° (Epoch: 06 March)

Event Time Altitude Azimuth Distance (km) Brightness Sun altitude
Rises 16:34:04 0° 280° (W) 2,883 ? 1.7°
Reaches altitude 10° 16:36:25 10° 276° (W) 1,968 ? 1.4°
Maximum altitude 16:40:50 58° 198° (SSW) 710 ? 0.8°
Drops below altitude 10° 16:45:12 10° 120° (ESE) 1,936 ? 0.1°
Sets 16:47:29 0° 116° (ESE) 2,831 ? -0.2°
